Weather History for Gambell, AK

Change the Weather History Date:

Sunday, June 2, 2013

  Actual Average Record
Temperature  
Mean Temperature 37 °F -  
Max Temperature 44 °F 37 °F 46 °F (2007)
Min Temperature 30 °F 30 °F 30 °F (2005)
Degree Days  
Heating Degree Days 28    
Moisture  
Dew Point 32 °F    
Average Humidity 84    
Maximum Humidity 100    
Minimum Humidity 75    
Precipitation  
Precipitation 0.00 in - - ()
Sea Level Pressure  
Sea Level Pressure 30.01 in    
Wind  
Wind Speed 6 mph (SSW)    
Max Wind Speed 9 mph    
Max Gust Speed -    
Visibility 10 miles    
Events      
Averages and records for this station are not official NWS values.
T = Trace of Precipitation, MM = Missing Value Source: NWS Daily Summary

Daily Weather History Graph

Daily Weather History Graph

Search for Another Location

Airport:

Trip Planner

Search our weather history database for the weather conditions in past years. The results will help you decide how hot, cold, wet, or windy it might be!

Date:

Astronomy

Jun. 02, 2013 Rise Set
Actual Time 5:25 AM AKDT 1:26 AM AKDT
Civil Twilight 3:57 AM AKDT 2:52 AM AKDT
Nautical Twilight Sun does not rise Sun does not rise
Astronomical Twilight Sun does not rise Sun does not rise
Moon 4:11 AM AKDT (6/2) 6:10 PM AKDT (6/2)
Length of Visible Light 22h 55m
Length of Day
20h 01m
Waning Crescent, 29% of the Moon is Illuminated
Jun 2
Waning Crescent
Jun 8
New
Jun 16
First Quarter
Jun 23
Full
Jun 29
Last Quarter

Hourly Weather History & Observations

Time (AKDT) Temp. Windchill Dew Point Humidity Pressure Visibility Wind Dir Wind Speed Gust Speed Precip Events Conditions
12:16 AM 37.4 °F 34.9 °F 30.2 °F 75% 30.09 in 10.0 mi SSW 3.5 mph - N/A   Clear
12:36 AM 35.6 °F 32.8 °F 30.2 °F 81% 30.09 in 10.0 mi South 3.5 mph - N/A   Clear
12:56 AM 35.6 °F 32.8 °F 28.4 °F 75% 30.08 in 10.0 mi South 3.5 mph - N/A   Clear
1:16 AM 35.6 °F 29.9 °F 30.2 °F 81% 30.08 in 10.0 mi South 6.9 mph - N/A   Clear
1:36 AM 33.8 °F 27.7 °F 30.2 °F 87% 30.08 in 10.0 mi South 6.9 mph - N/A   Clear
1:56 AM 32.0 °F 24.8 °F 28.4 °F 87% 30.08 in 10.0 mi South 8.1 mph - N/A   Clear
2:16 AM 33.8 °F 28.6 °F 30.2 °F 87% 30.08 in 10.0 mi South 5.8 mph - N/A   Clear
2:36 AM 33.8 °F 27.0 °F 30.2 °F 87% 30.08 in 10.0 mi South 8.1 mph - N/A   Clear
2:56 AM 33.8 °F 27.0 °F 30.2 °F 87% 30.07 in 10.0 mi South 8.1 mph - N/A   Clear
3:16 AM 33.8 °F 26.4 °F 28.4 °F 81% 30.07 in 10.0 mi South 9.2 mph - N/A   Clear
3:36 AM 32.0 °F 24.8 °F 30.2 °F 93% 30.07 in 10.0 mi South 8.1 mph - N/A   Clear
3:56 AM 33.8 °F 27.7 °F 30.2 °F 87% 30.06 in 10.0 mi South 6.9 mph - N/A   Clear
4:16 AM 32.0 °F 24.8 °F 30.2 °F 93% 30.06 in 10.0 mi South 8.1 mph - N/A   Clear
4:36 AM 32.0 °F 26.4 °F 30.2 °F 93% 30.05 in 10.0 mi South 5.8 mph - N/A   Clear
4:56 AM 32.0 °F 24.8 °F 30.2 °F 93% 30.05 in 10.0 mi South 8.1 mph - N/A   Clear
5:16 AM 30.2 °F 23.4 °F 28.4 °F 93% 30.05 in 10.0 mi South 6.9 mph - N/A   Clear
5:36 AM 30.2 °F 22.6 °F 30.2 °F 100% 30.05 in 10.0 mi South 8.1 mph - N/A   Clear
5:56 AM 30.2 °F 22.6 °F 28.4 °F 93% 30.05 in 10.0 mi South 8.1 mph - N/A   Clear
6:16 AM 30.2 °F 22.6 °F 30.2 °F 100% 30.04 in 10.0 mi South 8.1 mph - N/A   Clear
6:36 AM 30.2 °F 23.4 °F 28.4 °F 93% 30.04 in 10.0 mi South 6.9 mph - N/A   Clear
6:56 AM 32.0 °F 24.8 °F 30.2 °F 93% 30.04 in 10.0 mi South 8.1 mph - N/A   Clear
7:16 AM 30.2 °F 22.6 °F 28.4 °F 93% 30.03 in 10.0 mi South 8.1 mph - N/A   Clear
7:36 AM 32.0 °F 24.2 °F 30.2 °F 93% 30.03 in 10.0 mi South 9.2 mph - N/A   Clear
7:56 AM 32.0 °F 24.2 °F 30.2 °F 93% 30.03 in 10.0 mi South 9.2 mph - N/A   Clear
8:16 AM 32.0 °F 24.8 °F 30.2 °F 93% 30.03 in 10.0 mi South 8.1 mph - N/A   Clear
8:36 AM 33.8 °F 27.7 °F 30.2 °F 87% 30.03 in 10.0 mi South 6.9 mph - N/A   Clear
8:56 AM 33.8 °F 27.7 °F 30.2 °F 87% 30.02 in 10.0 mi South 6.9 mph - N/A   Clear
9:16 AM 33.8 °F 28.6 °F 30.2 °F 87% 30.03 in 10.0 mi South 5.8 mph - N/A   Clear
9:36 AM 33.8 °F 27.0 °F 30.2 °F 87% 30.02 in 10.0 mi South 8.1 mph - N/A   Clear
9:56 AM 33.8 °F 27.7 °F 30.2 °F 87% 30.02 in 10.0 mi South 6.9 mph - N/A   Clear
10:16 AM 35.6 °F 30.7 °F 30.2 °F 81% 30.02 in 10.0 mi South 5.8 mph - N/A   Clear
10:36 AM 35.6 °F 29.9 °F 30.2 °F 81% 30.02 in 10.0 mi South 6.9 mph - N/A   Clear
10:56 AM 35.6 °F 30.7 °F 30.2 °F 81% 30.01 in 10.0 mi South 5.8 mph - N/A   Clear
11:16 AM 35.6 °F 30.7 °F 30.2 °F 81% 30.01 in 10.0 mi South 5.8 mph - N/A   Clear
11:36 AM 35.6 °F 29.9 °F 30.2 °F 81% 30.01 in 10.0 mi SSW 6.9 mph - N/A   Clear
11:56 AM 35.6 °F 29.2 °F 30.2 °F 81% 30.02 in 10.0 mi SSW 8.1 mph - N/A   Clear
12:16 PM 35.6 °F 29.9 °F 30.2 °F 81% 30.01 in 10.0 mi SSW 6.9 mph - N/A   Clear
12:36 PM 35.6 °F 29.9 °F 30.2 °F 81% 30.01 in 10.0 mi SW 6.9 mph - N/A   Clear
12:56 PM 37.4 °F 32.8 °F 30.2 °F 75% 30.01 in 10.0 mi SSW 5.8 mph - N/A   Clear
1:16 PM 37.4 °F 33.8 °F 30.2 °F 75% 30.00 in 10.0 mi SW 4.6 mph - N/A   Clear
1:36 PM 37.4 °F 33.8 °F 32.0 °F 81% 30.00 in 10.0 mi SW 4.6 mph - N/A   Clear
1:56 PM 39.2 °F 35.0 °F 32.0 °F 75% 30.00 in 10.0 mi SW 5.8 mph - N/A   Clear
2:16 PM 39.2 °F 37.0 °F 32.0 °F 75% 30.00 in 9.0 mi SW 3.5 mph - N/A   Clear
2:36 PM 39.2 °F 35.9 °F 32.0 °F 75% 29.99 in 10.0 mi SW 4.6 mph - N/A   Clear
2:56 PM 39.2 °F 35.0 °F 32.0 °F 75% 29.99 in 10.0 mi SW 5.8 mph - N/A   Clear
3:16 PM 39.2 °F 35.0 °F 33.8 °F 81% 30.00 in 10.0 mi SW 5.8 mph - N/A   Clear
3:36 PM 39.2 °F 35.0 °F 32.0 °F 75% 29.99 in 10.0 mi SW 5.8 mph - N/A   Clear
3:56 PM 39.2 °F 35.0 °F 33.8 °F 81% 29.99 in 10.0 mi SW 5.8 mph - N/A   Clear
4:16 PM 39.2 °F 35.0 °F 33.8 °F 81% 29.98 in 9.0 mi SW 5.8 mph - N/A   Clear
4:36 PM 39.2 °F 35.0 °F 33.8 °F 81% 29.98 in 10.0 mi SW 5.8 mph - N/A   Clear
4:56 PM 39.2 °F 35.0 °F 33.8 °F 81% 29.97 in 10.0 mi SW 5.8 mph - N/A   Clear
5:16 PM 39.2 °F 35.0 °F 33.8 °F 81% 29.98 in 10.0 mi SW 5.8 mph - N/A   Clear
5:36 PM 39.2 °F 35.9 °F 35.6 °F 87% 29.97 in 10.0 mi WSW 4.6 mph - N/A   Clear
5:56 PM 39.2 °F 37.0 °F 35.6 °F 87% 29.97 in 10.0 mi SW 3.5 mph - N/A   Clear
6:16 PM 41.0 °F 39.0 °F 35.6 °F 81% 29.96 in 10.0 mi WSW 3.5 mph - N/A   Clear
6:36 PM 42.8 °F 41.1 °F 35.6 °F 76% 29.96 in 10.0 mi WSW 3.5 mph - N/A   Clear
6:56 PM 42.8 °F 41.1 °F 37.4 °F 81% 29.96 in 10.0 mi SW 3.5 mph - N/A   Clear
7:16 PM 42.8 °F 41.1 °F 37.4 °F 81% 29.96 in 10.0 mi SW 3.5 mph - N/A   Clear
7:36 PM 41.0 °F - 37.4 °F 87% 29.95 in 10.0 mi Calm Calm - N/A   Clear
7:56 PM 42.8 °F 41.1 °F 37.4 °F 81% 29.95 in 10.0 mi WSW 3.5 mph - N/A   Clear
8:16 PM 42.8 °F - 37.4 °F 81% 29.95 in 10.0 mi Calm Calm - N/A   Clear
8:36 PM 44.6 °F - 37.4 °F 76% 29.95 in 10.0 mi Calm Calm - N/A   Clear
8:56 PM 44.6 °F - 37.4 °F 76% 29.94 in 10.0 mi Calm Calm - N/A   Clear
9:16 PM 44.6 °F - 37.4 °F 76% 29.94 in 10.0 mi Calm Calm - N/A   Clear
9:36 PM 44.6 °F - 37.4 °F 76% 29.94 in 10.0 mi Calm Calm - N/A   Clear
9:56 PM 42.8 °F - 35.6 °F 76% 29.94 in 10.0 mi Calm Calm - N/A   Clear
10:16 PM 42.8 °F 41.1 °F 35.6 °F 76% 29.95 in 10.0 mi SSW 3.5 mph - N/A   Clear
10:36 PM 41.0 °F 37.1 °F 35.6 °F 81% 29.95 in 10.0 mi SSW 5.8 mph - N/A   Clear
10:56 PM 39.2 °F 35.9 °F 35.6 °F 87% 29.94 in 10.0 mi SW 4.6 mph - N/A   Clear
11:16 PM 39.2 °F 35.9 °F 35.6 °F 87% 29.94 in 10.0 mi SW 4.6 mph - N/A   Clear
11:36 PM 37.4 °F 33.8 °F 33.8 °F 87% 29.94 in 10.0 mi SSW 4.6 mph - N/A   Clear
11:56 PM 39.2 °F 35.0 °F 35.6 °F 87% 29.94 in 10.0 mi South 5.8 mph - N/A   Clear